Weather History for KFBG - April, 2013

Change the Weather History Date:

Tuesday, April 23, 2013

  Actual Average Record
Temperature  
Mean Temperature 58 °F -  
Max Temperature 68 °F 72 °F 89 °F (1999)
Min Temperature 48 °F 51 °F 43 °F (2009)
Degree Days  
Heating Degree Days 7    
Growing Degree Days 8 (Base 50)    
Moisture  
Dew Point 49 °F    
Average Humidity 72    
Maximum Humidity 100    
Minimum Humidity 52    
Precipitation  
Precipitation 0.00 in - - ()
Sea Level Pressure  
Sea Level Pressure 30.19 in    
Wind  
Wind Speed 7 mph (NE)    
Max Wind Speed 12 mph    
Max Gust Speed -    
Visibility 10 miles    
Events Rain    
Averages and records for this station are not official NWS values.
T = Trace of Precipitation, MM = Missing Value Source: NWS Daily Summary

Daily Weather History Graph

Daily Weather History Graph

Search for Another Location

Airport or City:

Trip Planner

Search our weather history database for the weather conditions in past years. The results will help you decide how hot, cold, wet, or windy it might be!

Date:

Astronomy

Apr. 23, 2013 Rise Set
Actual Time 6:33 AM EDT 7:55 PM EDT
Civil Twilight 6:06 AM EDT 8:21 PM EDT
Nautical Twilight 5:35 AM EDT 8:53 PM EDT
Astronomical Twilight 5:01 AM EDT 9:26 PM EDT
Moon 5:51 PM EDT (4/23) 4:55 AM EDT (4/23)
Length of Visible Light 14h 14m
Length of Day
13h 21m
Waxing Gibbous, 94% of the Moon is Illuminated
Apr 23
Waxing Gibbous
Apr 25
Full
May 2
Last Quarter
May 9
New
May 18
First Quarter

Hourly Weather History & Observations

Time (EDT) Temp. Dew Point Humidity Pressure Visibility Wind Dir Wind Speed Gust Speed Precip Events Conditions
12:08 AM 50.0 °F 46.4 °F 87% 30.26 in 10.0 mi Variable 5.8 mph - N/A   Mostly Cloudy
12:58 AM 50.7 °F 46.0 °F 84% 30.25 in 10.0 mi NNE 6.9 mph - N/A   Overcast
1:04 AM 50.0 °F 46.4 °F 87% 30.24 in 10.0 mi North 11.5 mph - N/A Rain Light Rain
1:16 AM 50.0 °F 46.4 °F 87% 30.23 in 10.0 mi North 8.1 mph - N/A Rain Light Rain
1:18 AM 50.0 °F 46.4 °F 87% 30.23 in 10.0 mi North 6.9 mph - N/A Rain Light Rain
1:20 AM 50.0 °F 46.4 °F 87% 30.23 in 10.0 mi North 8.1 mph - N/A Rain Light Rain
1:25 AM 50.0 °F 46.4 °F 87% 30.23 in 10.0 mi North 9.2 mph - N/A   Overcast
1:33 AM 50.0 °F 46.4 °F 87% 30.23 in 10.0 mi North 5.8 mph - N/A   Overcast
1:58 AM 49.5 °F 47.3 °F 92% 30.24 in 10.0 mi North 6.9 mph - 0.00 in   Mostly Cloudy
2:52 AM 50.0 °F 46.4 °F 87% 30.21 in 10.0 mi North 6.9 mph - N/A   Overcast
2:58 AM 49.5 °F 46.9 °F 91% 30.22 in 10.0 mi North 10.4 mph - N/A   Overcast
3:02 AM 50.0 °F 46.4 °F 87% 30.21 in 10.0 mi North 5.8 mph - N/A   Overcast
3:58 AM 49.1 °F 46.8 °F 92% 30.21 in 10.0 mi North 6.9 mph - N/A   Overcast
4:58 AM 48.9 °F 46.9 °F 93% 30.20 in 10.0 mi North 9.2 mph - N/A   Overcast
5:28 AM 48.2 °F 46.4 °F 93% 30.19 in 10.0 mi North 6.9 mph - N/A   Overcast
5:34 AM 48.2 °F 48.2 °F 100% 30.19 in 10.0 mi North 6.9 mph - N/A   Overcast
5:58 AM 48.4 °F 47.5 °F 97% 30.21 in 10.0 mi North 8.1 mph - N/A   Overcast
6:58 AM 48.7 °F 46.9 °F 93% 30.21 in 10.0 mi North 8.1 mph - N/A   Overcast
7:30 AM 48.2 °F 46.4 °F 93% 30.21 in 10.0 mi NNE 6.9 mph - N/A   Overcast
7:58 AM 49.3 °F 46.6 °F 90% 30.23 in 10.0 mi North 5.8 mph - N/A   Overcast
8:58 AM 50.5 °F 46.6 °F 86% 30.24 in 10.0 mi North 9.2 mph - N/A   Overcast
9:58 AM 52.3 °F 46.8 °F 81% 30.24 in 10.0 mi NNE 8.1 mph - N/A   Overcast
10:40 AM 53.6 °F 48.2 °F 82% 30.24 in 10.0 mi NE 9.2 mph - N/A   Overcast
10:58 AM 55.8 °F 47.7 °F 74% 30.25 in 10.0 mi NNE 8.1 mph - N/A   Overcast
11:58 AM 57.9 °F 48.0 °F 70% 30.25 in 10.0 mi NE 9.2 mph - N/A   Overcast
12:44 PM 59.0 °F 48.2 °F 67% 30.24 in 10.0 mi Variable 4.6 mph - N/A Rain Light Rain
12:53 PM 59.0 °F 48.2 °F 67% 30.24 in 10.0 mi NW 4.6 mph - N/A   Overcast
12:58 PM 59.9 °F 48.4 °F 66% 30.25 in 10.0 mi NE 5.8 mph - 0.00 in   Overcast
1:10 PM 60.8 °F 48.2 °F 63% 30.23 in 10.0 mi NE 4.6 mph - N/A Rain Light Rain
1:19 PM 59.0 °F 48.2 °F 67% 30.22 in 10.0 mi Variable 3.5 mph - N/A   Overcast
1:58 PM 61.7 °F 49.1 °F 63% 30.21 in 10.0 mi Variable 5.8 mph - 0.00 in   Mostly Cloudy
2:14 PM 62.6 °F 48.2 °F 59% 30.20 in 10.0 mi Variable 4.6 mph - N/A   Scattered Clouds
2:58 PM 65.3 °F 49.5 °F 57% 30.18 in 10.0 mi Variable 5.8 mph - N/A   Clear
3:44 PM 66.2 °F 50.0 °F 56% 30.15 in 10.0 mi Variable 5.8 mph - N/A Rain Light Rain
3:58 PM 66.9 °F 49.6 °F 54% 30.16 in 10.0 mi Variable 4.6 mph - 0.00 in Rain Light Rain
3:59 PM 68.0 °F 50.0 °F 52% 30.15 in 10.0 mi East 5.8 mph - N/A   Clear
4:00 PM 68.0 °F 50.0 °F 52% 30.15 in 10.0 mi East 6.9 mph - N/A   Light Drizzle
4:04 PM 68.0 °F 50.0 °F 52% 30.15 in 10.0 mi East 6.9 mph - N/A   Clear
4:07 PM 68.0 °F 50.0 °F 52% 30.15 in 10.0 mi East 5.8 mph - N/A   Light Drizzle
4:28 PM 68.0 °F 50.0 °F 52% 30.14 in 10.0 mi ENE 8.1 mph - N/A   Clear
4:34 PM 68.0 °F 50.0 °F 52% 30.14 in 10.0 mi Variable 3.5 mph - N/A Rain Light Rain
4:48 PM - - N/A% - - NE 6.9 mph - N/A   Unknown
4:49 PM 68.0 °F 50.0 °F 52% 30.13 in 10.0 mi NE 8.1 mph - N/A Rain Light Rain
4:58 PM 68.0 °F 49.8 °F 52% 30.14 in 10.0 mi East 5.8 mph - 0.00 in Rain Light Rain
4:59 PM 68.0 °F 50.0 °F 52% 30.13 in 10.0 mi East 2.3 mph - N/A   Clear
5:01 PM 68.0 °F 50.0 °F 52% 30.13 in 10.0 mi Variable 1.2 mph - N/A Rain Light Rain
5:04 PM 68.0 °F 50.0 °F 52% 30.13 in 10.0 mi East 4.6 mph - N/A   Clear
5:06 PM 68.0 °F 50.0 °F 52% 30.13 in 10.0 mi Variable 3.5 mph - N/A Rain Light Rain
5:31 PM 68.0 °F 50.0 °F 52% 30.13 in 10.0 mi NE 5.8 mph - N/A   Clear
5:52 PM 68.0 °F 50.0 °F 52% 30.13 in 10.0 mi ENE 4.6 mph - N/A Rain Light Rain
5:58 PM 68.0 °F 50.0 °F 52% 30.14 in 10.0 mi NNE 4.6 mph - 0.00 in Rain Light Rain
6:00 PM 68.0 °F 50.0 °F 52% 30.13 in 10.0 mi Variable 1.2 mph - N/A   Clear
6:58 PM 66.7 °F 49.6 °F 54% 30.14 in 10.0 mi East 4.6 mph - 0.00 in   Clear
7:58 PM 63.5 °F 50.2 °F 62% 30.14 in 10.0 mi East 2.3 mph - N/A   Clear
8:58 PM 58.8 °F 52.7 °F 80% 30.16 in 10.0 mi Calm Calm - N/A   Clear
9:58 PM 57.2 °F 52.2 °F 83% 30.17 in 10.0 mi Calm Calm - N/A   Clear
10:58 PM 54.5 °F 52.9 °F 94% 30.16 in 10.0 mi Calm Calm - N/A   Clear
11:58 PM 53.4 °F 51.3 °F 92% 30.16 in 10.0 mi SSE 2.3 mph - N/A   Clear